Time,TemperatureF,DewpointF,PressureIn,WindDirection,WindDirectionDegrees,WindSpeedMPH,WindSpeedGustMPH,Humidity,HourlyPrecipIn,Conditions,Clouds,dailyrainin,SoftwareType,DateUTC
2013-09-23 00:04:00,76.9,71.0,29.77,ENE,59,7.6,11.5,82,0.00,CLR,,0.00,WeatherDisplay:10.37,2013-09-23 05:04:00,
2013-09-23 00:09:00,76.9,71.0,29.77,NE,55,9.9,12.7,82,0.00,CLR,,0.00,WeatherDisplay:10.37,2013-09-23 05:09:00,
2013-09-23 00:14:00,76.8,71.2,29.77,ENE,66,7.8,11.5,83,0.00,CLR,,0.00,WeatherDisplay:10.37,2013-09-23 05:14:00,
2013-09-23 00:19:00,76.7,71.1,29.77,ENE,72,7.7,11.7,83,0.00,CLR,,0.00,WeatherDisplay:10.37,2013-09-23 05:19:00,
2013-09-23 00:24:00,76.7,71.1,29.77,NE,38,7.6,11.5,83,0.00,CLR,,0.00,WeatherDisplay:10.37,2013-09-23 05:24:00,
2013-09-23 00:29:00,76.6,71.0,29.77,ENE,61,6.8,11.5,83,0.00,CLR,,0.00,WeatherDisplay:10.37,2013-09-23 05:29:00,
2013-09-23 00:34:00,76.5,70.9,29.77,NE,54,9.4,11.4,83,0.00,CLR,,0.00,WeatherDisplay:10.37,2013-09-23 05:34:00,
2013-09-23 00:39:00,76.6,71.4,29.77,NE,55,7.1,10.4,84,0.00,CLR,,0.00,WeatherDisplay:10.37,2013-09-23 05:39:00,
2013-09-23 00:44:00,76.4,70.9,29.77,NNE,20,8.4,12.1,83,0.00,CLR,,0.00,WeatherDisplay:10.37,2013-09-23 05:44:00,
2013-09-23 00:49:00,76.4,70.9,29.77,ENE,76,6.4,10.0,83,0.00,CLR,,0.00,WeatherDisplay:10.37,2013-09-23 05:49:00,
2013-09-23 00:54:00,76.4,70.9,29.77,North,6,4.8,8.1,83,0.00,CLR,,0.00,WeatherDisplay:10.37,2013-09-23 05:54:00,
2013-09-23 00:59:00,76.1,70.2,29.77,NE,41,5.1,6.9,82,0.00,CLR,,0.00,WeatherDisplay:10.37,2013-09-23 05:59:00,
2013-09-23 01:04:00,75.9,70.0,29.77,North,3,6.5,8.1,82,0.00,CLR,,0.00,WeatherDisplay:10.37,2013-09-23 06:04:00,
2013-09-23 01:09:00,75.5,69.6,29.77,SSE,150,5.0,8.1,82,0.00,CLR,,0.00,WeatherDisplay:10.37,2013-09-23 06:09:00,
2013-09-23 01:14:00,75.4,69.9,29.77,ENE,66,5.6,10.4,83,0.00,CLR,,0.00,WeatherDisplay:10.37,2013-09-23 06:14:00,
2013-09-23 01:19:00,75.5,70.3,29.77,ENE,76,7.0,11.5,84,0.00,CLR,,0.00,WeatherDisplay:10.37,2013-09-23 06:19:00,
2013-09-23 01:24:00,75.5,70.0,29.77,NNE,30,8.0,11.5,83,0.00,CLR,,0.00,WeatherDisplay:10.37,2013-09-23 06:24:00,
2013-09-23 01:29:00,75.7,70.2,29.77,East,97,5.6,9.2,83,0.00,CLR,,0.00,WeatherDisplay:10.37,2013-09-23 06:29:00,
2013-09-23 01:34:00,75.8,70.3,29.77,North,6,5.7,6.9,83,0.00,CLR,,0.00,WeatherDisplay:10.37,2013-09-23 06:34:00,
2013-09-23 01:39:00,75.4,69.9,29.77,North,360,4.3,6.9,83,0.00,CLR,,0.00,WeatherDisplay:10.37,2013-09-23 06:39:00,
2013-09-23 01:44:00,74.9,69.4,29.76,NNW,343,4.8,6.2,83,0.00,CLR,,0.00,WeatherDisplay:10.37,2013-09-23 06:44:00,
2013-09-23 01:49:00,74.3,69.1,29.76,NNW,342,4.4,6.9,84,0.00,CLR,,0.00,WeatherDisplay:10.37,2013-09-23 06:49:00,
2013-09-23 01:54:00,73.9,69.1,29.76,NNW,347,4.3,4.9,85,0.00,CLR,,0.00,WeatherDisplay:10.37,2013-09-23 06:54:00,
2013-09-23 01:59:00,73.6,69.2,29.76,NNE,20,4.6,6.5,86,0.00,CLR,,0.00,WeatherDisplay:10.37,2013-09-23 06:59:00,
2013-09-23 02:04:00,73.2,69.1,29.76,North,7,3.2,4.6,87,0.00,CLR,,0.00,WeatherDisplay:10.37,2013-09-23 07:04:00,
2013-09-23 02:09:00,72.9,69.1,29.76,North,350,4.7,4.7,88,0.00,CLR,,0.00,WeatherDisplay:10.37,2013-09-23 07:09:00,
2013-09-23 02:14:00,72.7,69.3,29.76,North,354,3.8,5.8,89,0.00,CLR,,0.00,WeatherDisplay:10.37,2013-09-23 07:14:00,
2013-09-23 02:19:00,72.5,69.4,29.76,NNW,333,3.4,5.8,90,0.00,CLR,,0.00,WeatherDisplay:10.37,2013-09-23 07:19:00,
2013-09-23 02:24:00,72.3,69.2,29.76,NNE,13,3.8,4.6,90,0.00,CLR,,0.00,WeatherDisplay:10.37,2013-09-23 07:24:00,
2013-09-23 02:29:00,72.2,69.4,29.76,NNW,336,5.0,5.8,91,0.00,CLR,,0.00,WeatherDisplay:10.37,2013-09-23 07:29:00,
2013-09-23 02:34:00,72.0,69.2,29.76,North,7,3.9,5.8,91,0.00,CLR,,0.00,WeatherDisplay:10.37,2013-09-23 07:34:00,
2013-09-23 02:39:00,71.8,69.0,29.76,North,352,4.5,6.9,91,0.00,CLR,,0.00,WeatherDisplay:10.37,2013-09-23 07:39:00,
2013-09-23 02:44:00,71.7,69.3,29.76,NNW,342,4.7,5.9,92,0.00,CLR,,0.00,WeatherDisplay:10.37,2013-09-23 07:44:00,
2013-09-23 02:49:00,71.5,69.1,29.76,NNW,333,5.6,7.0,92,0.00,CLR,,0.00,WeatherDisplay:10.37,2013-09-23 07:49:00,
2013-09-23 02:54:00,71.5,69.1,29.76,NNW,342,6.0,8.1,92,0.00,CLR,,0.00,WeatherDisplay:10.37,2013-09-23 07:54:00,
2013-09-23 02:59:00,71.3,68.9,29.76,NNW,344,6.4,7.7,92,0.00,CLR,,0.00,WeatherDisplay:10.37,2013-09-23 07:59:00,
2013-09-23 03:04:00,71.2,68.8,29.76,NNW,340,5.0,7.1,92,0.00,CLR,,0.00,WeatherDisplay:10.37,2013-09-23 08:04:00,
2013-09-23 03:09:00,71.2,68.4,29.76,North,0,4.9,6.9,91,0.00,CLR,,0.00,WeatherDisplay:10.37,2013-09-23 08:09:00,
2013-09-23 03:14:00,71.3,68.9,29.76,NNW,342,5.0,8.1,92,0.00,CLR,,0.00,WeatherDisplay:10.37,2013-09-23 08:14:00,
2013-09-23 03:19:00,71.3,68.9,29.75,NNW,340,4.2,8.1,92,0.00,CLR,,0.00,WeatherDisplay:10.37,2013-09-23 08:19:00,
2013-09-23 03:24:00,71.4,69.0,29.75,North,356,6.1,8.1,92,0.00,CLR,,0.00,WeatherDisplay:10.37,2013-09-23 08:24:00,
2013-09-23 03:29:00,71.4,69.3,29.75,North,354,4.9,8.1,93,0.00,CLR,,0.00,WeatherDisplay:10.37,2013-09-23 08:29:00,
2013-09-23 03:34:00,71.5,69.4,29.75,NNW,333,5.4,7.0,93,0.00,CLR,,0.00,WeatherDisplay:10.37,2013-09-23 08:34:00,
2013-09-23 03:39:00,71.5,69.4,29.75,NNW,347,5.5,6.9,93,0.00,CLR,,0.00,WeatherDisplay:10.37,2013-09-23 08:39:00,
2013-09-23 03:44:00,71.4,69.3,29.75,North,360,4.7,7.5,93,0.00,CLR,,0.00,WeatherDisplay:10.37,2013-09-23 08:44:00,
2013-09-23 03:49:00,71.3,69.5,29.75,North,350,4.7,6.9,94,0.00,CLR,,0.00,WeatherDisplay:10.37,2013-09-23 08:49:00,
2013-09-23 03:54:00,71.2,69.4,29.75,NNW,337,5.4,6.7,94,0.00,CLR,,0.00,WeatherDisplay:10.37,2013-09-23 08:54:00,
2013-09-23 03:59:00,71.0,69.5,29.75,North,350,3.7,6.4,95,0.00,CLR,,0.00,WeatherDisplay:10.37,2013-09-23 08:59:00,
2013-09-23 04:04:00,71.0,69.5,29.75,NNW,346,4.3,6.9,95,0.00,CLR,,0.00,WeatherDisplay:10.37,2013-09-23 09:04:00,
2013-09-23 04:09:00,70.9,69.4,29.75,NNW,344,4.9,6.9,95,0.00,CLR,,0.00,WeatherDisplay:10.37,2013-09-23 09:09:00,
2013-09-23 04:14:00,70.9,69.4,29.75,NNE,17,4.7,5.8,95,0.00,CLR,,0.00,WeatherDisplay:10.37,2013-09-23 09:14:00,
2013-09-23 04:19:00,71.0,69.8,29.75,NNW,344,5.2,6.9,96,0.00,CLR,,0.00,WeatherDisplay:10.37,2013-09-23 09:19:00,
2013-09-23 04:24:00,70.9,69.7,29.75,NNW,347,5.0,5.8,96,0.00,CLR,,0.00,WeatherDisplay:10.37,2013-09-23 09:24:00,
2013-09-23 04:29:00,70.8,69.6,29.75,North,360,5.0,6.9,96,0.00,CLR,,0.00,WeatherDisplay:10.37,2013-09-23 09:29:00,
2013-09-23 04:34:00,70.9,69.7,29.75,North,356,4.6,5.8,96,0.00,CLR,,0.00,WeatherDisplay:10.37,2013-09-23 09:34:00,
2013-09-23 04:39:00,70.9,69.7,29.75,North,349,5.3,6.9,96,0.00,CLR,,0.00,WeatherDisplay:10.37,2013-09-23 09:39:00,
2013-09-23 04:44:00,70.8,69.6,29.75,NNW,329,5.9,6.9,96,0.00,CLR,,0.00,WeatherDisplay:10.37,2013-09-23 09:44:00,
2013-09-23 04:49:00,70.9,69.7,29.75,NNW,330,5.8,8.1,96,0.00,CLR,,0.00,WeatherDisplay:10.37,2013-09-23 09:49:00,
2013-09-23 04:54:00,70.9,69.7,29.75,NNW,347,7.6,8.8,96,0.00,CLR,,0.00,WeatherDisplay:10.37,2013-09-23 09:54:00,
2013-09-23 04:59:00,71.2,70.0,29.75,NNW,332,6.1,8.1,96,0.00,CLR,,0.00,WeatherDisplay:10.37,2013-09-23 09:59:00,
2013-09-23 05:04:00,71.5,70.3,29.75,NNW,328,3.3,5.8,96,0.00,CLR,,0.00,WeatherDisplay:10.37,2013-09-23 10:04:00,
2013-09-23 05:09:00,71.5,70.3,29.75,NNW,339,4.8,6.9,96,0.00,CLR,,0.00,WeatherDisplay:10.37,2013-09-23 10:09:00,
2013-09-23 05:14:00,71.5,70.3,29.75,NNW,337,5.2,6.9,96,0.00,CLR,,0.00,WeatherDisplay:10.37,2013-09-23 10:14:00,
2013-09-23 05:19:00,71.4,70.2,29.75,NNW,329,5.7,6.9,96,0.00,CLR,,0.00,WeatherDisplay:10.37,2013-09-23 10:19:00,
2013-09-23 05:24:00,71.4,70.2,29.75,NNW,342,6.3,8.8,96,0.00,CLR,,0.00,WeatherDisplay:10.37,2013-09-23 10:24:00,
2013-09-23 05:29:00,71.3,70.1,29.75,NNW,335,5.7,8.4,96,0.00,CLR,,0.00,WeatherDisplay:10.37,2013-09-23 10:29:00,
2013-09-23 05:35:00,71.2,70.0,29.75,NNW,340,7.1,9.2,96,0.00,CLR,,0.00,WeatherDisplay:10.37,2013-09-23 10:35:00,
2013-09-23 05:40:00,71.1,69.9,29.75,NNW,337,6.3,8.1,96,0.00,CLR,,0.00,WeatherDisplay:10.37,2013-09-23 10:40:00,
2013-09-23 05:45:00,71.0,69.8,29.75,North,352,4.4,8.1,96,0.00,CLR,,0.00,WeatherDisplay:10.37,2013-09-23 10:45:00,
2013-09-23 05:50:00,71.0,69.8,29.75,NNW,339,6.5,9.2,96,0.00,CLR,,0.00,WeatherDisplay:10.37,2013-09-23 10:50:00,
2013-09-23 05:55:00,71.0,69.8,29.75,NNW,344,7.0,9.2,96,0.00,CLR,,0.00,WeatherDisplay:10.37,2013-09-23 10:55:00,
2013-09-23 06:00:00,71.0,69.5,29.76,North,350,5.5,9.2,95,0.00,CLR,,0.00,WeatherDisplay:10.37,2013-09-23 11:00:00,
2013-09-23 06:05:00,71.0,69.5,29.75,NW,326,4.8,6.9,95,0.00,CLR,,0.00,WeatherDisplay:10.37,2013-09-23 11:05:00,
2013-09-23 06:10:00,70.9,69.4,29.75,NNW,332,5.6,8.0,95,0.00,CLR,,0.00,WeatherDisplay:10.37,2013-09-23 11:10:00,
2013-09-23 06:15:00,70.8,69.3,29.75,North,352,4.4,6.9,95,0.00,CLR,,0.00,WeatherDisplay:10.37,2013-09-23 11:15:00,
2013-09-23 06:20:00,70.7,69.2,29.75,North,359,4.7,5.8,95,0.00,CLR,,0.00,WeatherDisplay:10.37,2013-09-23 11:20:00,
2013-09-23 06:25:00,70.6,69.1,29.75,NNW,340,6.8,9.2,95,0.00,CLR,,0.00,WeatherDisplay:10.37,2013-09-23 11:25:00,
2013-09-23 06:30:00,70.5,69.0,29.76,NNW,344,6.5,6.9,95,0.00,CLR,,0.00,WeatherDisplay:10.37,2013-09-23 11:30:00,
2013-09-23 06:35:00,70.5,69.0,29.76,NNW,342,6.1,8.1,95,0.00,CLR,,0.00,WeatherDisplay:10.37,2013-09-23 11:35:00,
2013-09-23 06:40:00,70.4,68.9,29.76,NNW,347,7.5,9.2,95,0.00,CLR,,0.00,WeatherDisplay:10.37,2013-09-23 11:40:00,
2013-09-23 06:45:00,70.3,68.8,29.76,NNW,336,6.8,9.3,95,0.00,CLR,,0.00,WeatherDisplay:10.37,2013-09-23 11:45:00,
2013-09-23 06:50:00,70.1,68.6,29.75,North,357,7.2,9.2,95,0.00,CLR,,0.00,WeatherDisplay:10.37,2013-09-23 11:50:00,
2013-09-23 06:55:00,70.0,68.5,29.76,North,349,7.3,10.4,95,0.00,CLR,,0.00,WeatherDisplay:10.37,2013-09-23 11:55:00,
2013-09-23 07:00:00,70.1,68.6,29.76,NNW,339,5.8,8.1,95,0.00,CLR,,0.00,WeatherDisplay:10.37,2013-09-23 12:00:00,
2013-09-23 07:05:00,70.1,68.6,29.76,North,350,5.3,8.1,95,0.00,CLR,,0.00,WeatherDisplay:10.37,2013-09-23 12:05:00,
2013-09-23 07:10:00,70.1,68.6,29.76,North,349,6.1,8.1,95,0.00,CLR,,0.00,WeatherDisplay:10.37,2013-09-23 12:10:00,
2013-09-23 07:15:00,70.0,68.8,29.76,NNW,347,6.7,9.2,96,0.00,CLR,,0.00,WeatherDisplay:10.37,2013-09-23 12:15:00,
2013-09-23 07:20:00,70.0,68.8,29.76,NNW,343,5.4,8.1,96,0.00,CLR,,0.00,WeatherDisplay:10.37,2013-09-23 12:20:00,
2013-09-23 07:25:00,69.9,68.7,29.76,North,354,5.1,8.1,96,0.00,CLR,,0.00,WeatherDisplay:10.37,2013-09-23 12:25:00,
2013-09-23 07:30:00,70.0,68.8,29.76,North,8,5.6,8.1,96,0.00,CLR,,0.00,WeatherDisplay:10.37,2013-09-23 12:30:00,
2013-09-23 07:35:00,70.0,68.8,29.76,North,357,6.1,8.1,96,0.00,CLR,,0.00,WeatherDisplay:10.37,2013-09-23 12:35:00,
2013-09-23 07:40:00,70.2,69.0,29.76,North,10,6.9,8.1,96,0.00,CLR,,0.00,WeatherDisplay:10.37,2013-09-23 12:40:00,
2013-09-23 07:45:00,70.5,69.3,29.76,NNW,346,6.6,9.2,96,0.00,CLR,,0.00,WeatherDisplay:10.37,2013-09-23 12:45:00,
2013-09-23 07:50:00,70.7,69.5,29.76,North,3,6.2,11.5,96,0.00,CLR,,0.00,WeatherDisplay:10.37,2013-09-23 12:50:00,
2013-09-23 07:55:00,71.1,69.6,29.76,NNE,17,9.3,12.7,95,0.00,CLR,,0.00,WeatherDisplay:10.37,2013-09-23 12:55:00,
2013-09-23 08:00:00,71.5,69.4,29.75,North,356,8.9,12.3,93,0.00,CLR,,0.00,WeatherDisplay:10.37,2013-09-23 13:00:00,
2013-09-23 08:05:00,71.8,69.0,29.76,NNE,28,7.5,11.5,91,0.00,CLR,,0.00,WeatherDisplay:10.37,2013-09-23 13:05:00,
2013-09-23 08:10:00,72.1,68.7,29.75,NNE,27,6.9,9.2,89,0.00,CLR,,0.00,WeatherDisplay:10.37,2013-09-23 13:10:00,
2013-09-23 08:15:00,72.3,68.5,29.75,NE,55,8.1,15.0,88,0.00,CLR,,0.00,WeatherDisplay:10.37,2013-09-23 13:15:00,
2013-09-23 08:20:00,72.5,68.1,29.75,NE,52,8.5,12.7,86,0.00,CLR,,0.00,WeatherDisplay:10.37,2013-09-23 13:20:00,
2013-09-23 08:25:00,72.7,67.9,29.75,NNE,16,6.7,13.8,85,0.00,CLR,,0.00,WeatherDisplay:10.37,2013-09-23 13:25:00,
2013-09-23 08:30:00,72.9,67.8,29.76,North,7,6.3,10.4,84,0.00,CLR,,0.00,WeatherDisplay:10.37,2013-09-23 13:30:00,
2013-09-23 08:35:00,73.1,67.6,29.76,North,6,7.7,12.7,83,0.00,CLR,,0.00,WeatherDisplay:10.37,2013-09-23 13:35:00,
2013-09-23 08:40:00,73.1,67.3,29.76,North,360,7.1,9.2,82,0.00,CLR,,0.00,WeatherDisplay:10.37,2013-09-23 13:40:00,
2013-09-23 08:45:00,73.2,67.4,29.76,NNW,336,5.2,9.1,82,0.00,CLR,,0.00,WeatherDisplay:10.37,2013-09-23 13:45:00,
2013-09-23 08:50:00,73.3,67.5,29.76,North,0,8.0,11.9,82,0.00,CLR,,0.00,WeatherDisplay:10.37,2013-09-23 13:50:00,
2013-09-23 08:55:00,73.6,67.8,29.76,North,360,7.5,11.5,82,0.00,CLR,,0.00,WeatherDisplay:10.37,2013-09-23 13:55:00,
2013-09-23 09:00:00,73.8,67.6,29.76,North,0,6.8,9.2,81,0.00,CLR,,0.00,WeatherDisplay:10.37,2013-09-23 14:00:00,
2013-09-23 09:05:00,74.0,68.2,29.77,NE,41,10.6,16.1,82,0.00,CLR,,0.00,WeatherDisplay:10.37,2013-09-23 14:05:00,
2013-09-23 09:10:00,74.3,68.4,29.77,NE,38,7.5,11.1,82,0.00,CLR,,0.00,WeatherDisplay:10.37,2013-09-23 14:10:00,
2013-09-23 09:15:00,74.6,68.7,29.77,North,3,8.1,13.8,82,0.00,CLR,,0.00,WeatherDisplay:10.37,2013-09-23 14:15:00,
2013-09-23 09:20:00,74.7,68.8,29.77,NNE,14,6.0,9.2,82,0.00,CLR,,0.00,WeatherDisplay:10.37,2013-09-23 14:20:00,
2013-09-23 09:25:00,74.8,68.9,29.77,ENE,69,8.4,12.7,82,0.00,CLR,,0.00,WeatherDisplay:10.37,2013-09-23 14:25:00,
2013-09-23 09:30:00,74.8,68.9,29.78,NE,34,6.2,10.4,82,0.00,CLR,,0.00,WeatherDisplay:10.37,2013-09-23 14:30:00,
2013-09-23 09:35:00,75.0,69.1,29.78,NNE,16,7.8,13.4,82,0.00,CLR,,0.00,WeatherDisplay:10.37,2013-09-23 14:35:00,
2013-09-23 09:40:00,75.2,69.3,29.78,North,360,9.5,12.7,82,0.00,CLR,,0.00,WeatherDisplay:10.37,2013-09-23 14:40:00,
2013-09-23 09:45:00,75.4,69.2,29.78,NNE,13,6.0,9.2,81,0.00,CLR,,0.00,WeatherDisplay:10.37,2013-09-23 14:45:00,
2013-09-23 09:50:00,75.8,69.6,29.79,North,360,7.8,11.5,81,0.00,CLR,,0.00,WeatherDisplay:10.37,2013-09-23 14:50:00,
2013-09-23 09:55:00,76.0,69.4,29.79,North,360,7.8,10.4,80,0.00,CLR,,0.00,WeatherDisplay:10.37,2013-09-23 14:55:00,
2013-09-23 10:00:00,75.9,69.3,29.79,NNW,340,5.2,6.9,80,0.00,CLR,,0.00,WeatherDisplay:10.37,2013-09-23 15:00:00,
2013-09-23 10:05:00,75.9,69.3,29.79,NE,35,6.2,9.2,80,0.00,CLR,,0.00,WeatherDisplay:10.37,2013-09-23 15:05:00,
2013-09-23 10:10:00,76.1,69.5,29.79,NW,326,4.4,5.8,80,0.00,CLR,,0.00,WeatherDisplay:10.37,2013-09-23 15:10:00,
2013-09-23 10:15:00,76.1,69.1,29.79,North,352,4.6,6.9,79,0.00,CLR,,0.00,WeatherDisplay:10.37,2013-09-23 15:15:00,
2013-09-23 10:20:00,76.3,69.3,29.79,North,354,4.2,8.1,79,0.00,CLR,,0.00,WeatherDisplay:10.37,2013-09-23 15:20:00,
2013-09-23 10:25:00,76.6,69.6,29.80,NNW,332,5.4,11.3,79,0.00,CLR,,0.00,WeatherDisplay:10.37,2013-09-23 15:25:00,
2013-09-23 10:30:00,76.8,69.8,29.80,NNW,339,5.8,8.1,79,0.00,CLR,,0.00,WeatherDisplay:10.37,2013-09-23 15:30:00,
2013-09-23 10:35:00,76.9,69.9,29.80,NW,326,8.5,13.8,79,0.00,CLR,,0.00,WeatherDisplay:10.37,2013-09-23 15:35:00,
2013-09-23 10:40:00,77.0,69.6,29.81,North,11,7.5,11.5,78,0.00,CLR,,0.00,WeatherDisplay:10.37,2013-09-23 15:40:00,
2013-09-23 10:45:00,77.0,70.0,29.81,NNW,337,6.3,9.6,79,0.00,CLR,,0.00,WeatherDisplay:10.37,2013-09-23 15:45:00,
2013-09-23 10:50:00,76.9,69.9,29.81,NNW,342,9.6,12.9,79,0.00,CLR,,0.00,WeatherDisplay:10.37,2013-09-23 15:50:00,
2013-09-23 10:55:00,76.7,70.1,29.81,NW,320,10.4,13.8,80,0.00,CLR,,0.00,WeatherDisplay:10.37,2013-09-23 15:55:00,
2013-09-23 11:00:00,76.6,70.3,29.81,NNW,344,8.8,13.8,81,0.00,CLR,,0.00,WeatherDisplay:10.37,2013-09-23 16:00:00,
2013-09-23 11:05:00,76.8,70.2,29.81,NNE,25,5.6,9.7,80,0.00,CLR,,0.00,WeatherDisplay:10.37,2013-09-23 16:05:00,
2013-09-23 11:10:00,77.2,70.2,29.81,North,4,8.0,11.5,79,0.00,CLR,,0.00,WeatherDisplay:10.37,2013-09-23 16:10:00,
2013-09-23 11:15:00,77.4,70.4,29.80,North,360,7.0,10.4,79,0.00,CLR,,0.00,WeatherDisplay:10.37,2013-09-23 16:15:00,
2013-09-23 11:20:00,77.5,70.5,29.80,North,357,8.7,13.8,79,0.00,CLR,,0.00,WeatherDisplay:10.37,2013-09-23 16:20:00,
2013-09-23 11:25:00,77.8,70.8,29.80,NW,325,8.2,16.1,79,0.00,CLR,,0.00,WeatherDisplay:10.37,2013-09-23 16:25:00,
2013-09-23 11:30:00,77.9,70.9,29.80,North,353,10.4,16.0,79,0.00,CLR,,0.00,WeatherDisplay:10.37,2013-09-23 16:30:00,
2013-09-23 11:35:00,77.9,70.9,29.80,North,3,7.7,9.2,79,0.00,CLR,,0.00,WeatherDisplay:10.37,2013-09-23 16:35:00,
2013-09-23 11:40:00,78.2,71.2,29.80,NNW,342,9.5,13.1,79,0.00,CLR,,0.00,WeatherDisplay:10.37,2013-09-23 16:40:00,
2013-09-23 11:45:00,78.5,71.4,29.80,NNE,16,6.7,12.6,79,0.00,CLR,,0.00,WeatherDisplay:10.37,2013-09-23 16:45:00,
2013-09-23 11:50:00,78.8,71.4,29.80,NNE,17,9.0,11.5,78,0.00,CLR,,0.00,WeatherDisplay:10.37,2013-09-23 16:50:00,
2013-09-23 11:55:00,79.1,71.3,29.80,North,359,7.6,12.7,77,0.00,CLR,,0.00,WeatherDisplay:10.37,2013-09-23 16:55:00,
2013-09-23 12:00:00,79.3,71.1,29.80,NW,323,10.0,12.7,76,0.00,CLR,,0.00,WeatherDisplay:10.37,2013-09-23 17:00:00,
2013-09-23 12:05:00,79.2,71.0,29.80,North,360,9.0,11.5,76,0.00,CLR,,0.00,WeatherDisplay:10.37,2013-09-23 17:05:00,
2013-09-23 12:10:00,79.2,71.4,29.80,North,350,6.3,10.4,77,0.00,CLR,,0.00,WeatherDisplay:10.37,2013-09-23 17:10:00,
2013-09-23 12:15:00,78.9,70.7,29.80,NNW,346,7.7,12.7,76,0.00,CLR,,0.00,WeatherDisplay:10.37,2013-09-23 17:15:00,
2013-09-23 12:20:00,79.0,71.2,29.80,NNE,17,6.5,10.4,77,0.00,CLR,,0.00,WeatherDisplay:10.37,2013-09-23 17:20:00,
2013-09-23 12:25:00,79.4,71.6,29.80,NNW,332,6.7,11.5,77,0.00,CLR,,0.00,WeatherDisplay:10.37,2013-09-23 17:25:00,
2013-09-23 12:30:00,79.7,71.5,29.80,North,1,6.0,9.2,76,0.00,CLR,,0.00,WeatherDisplay:10.37,2013-09-23 17:30:00,
2013-09-23 12:35:00,80.2,71.6,29.80,North,8,4.6,9.2,75,0.00,CLR,,0.00,WeatherDisplay:10.37,2013-09-23 17:35:00,
2013-09-23 12:40:00,80.5,71.4,29.80,NNW,340,6.3,10.4,74,0.00,CLR,,0.00,WeatherDisplay:10.37,2013-09-23 17:40:00,
2013-09-23 12:45:00,80.4,71.3,29.79,North,350,6.0,8.5,74,0.00,CLR,,0.00,WeatherDisplay:10.37,2013-09-23 17:45:00,
2013-09-23 12:50:00,80.3,70.9,29.79,NNW,339,6.7,10.4,73,0.00,CLR,,0.00,WeatherDisplay:10.37,2013-09-23 17:50:00,
2013-09-23 12:55:00,80.5,71.4,29.79,North,359,7.1,10.7,74,0.00,CLR,,0.00,WeatherDisplay:10.37,2013-09-23 17:55:00,
2013-09-23 13:00:00,81.0,71.1,29.79,NNW,346,5.9,8.1,72,0.00,CLR,,0.00,WeatherDisplay:10.37,2013-09-23 18:00:00,
2013-09-23 13:05:00,81.2,71.3,29.79,North,354,7.7,9.2,72,0.00,CLR,,0.00,WeatherDisplay:10.37,2013-09-23 18:05:00,
2013-09-23 13:10:00,81.7,71.8,29.78,NNW,339,6.1,10.4,72,0.00,CLR,,0.00,WeatherDisplay:10.37,2013-09-23 18:10:00,
2013-09-23 13:15:00,82.0,71.2,29.78,NE,51,5.8,9.2,70,0.00,CLR,,0.00,WeatherDisplay:10.37,2013-09-23 18:15:00,
2013-09-23 13:20:00,81.9,71.2,29.78,NE,49,5.5,10.1,70,0.00,CLR,,0.00,WeatherDisplay:10.37,2013-09-23 18:20:00,
2013-09-23 13:25:00,81.9,71.6,29.77,NNW,330,7.8,11.7,71,0.00,CLR,,0.00,WeatherDisplay:10.37,2013-09-23 18:25:00,
2013-09-23 13:30:00,82.1,71.8,29.77,North,3,6.1,11.4,71,0.00,CLR,,0.00,WeatherDisplay:10.37,2013-09-23 18:30:00,
2013-09-23 13:35:00,82.2,71.0,29.77,ENE,72,4.8,9.2,69,0.00,CLR,,0.00,WeatherDisplay:10.37,2013-09-23 18:35:00,
2013-09-23 13:40:00,82.4,71.6,29.77,North,3,6.6,9.2,70,0.00,CLR,,0.00,WeatherDisplay:10.37,2013-09-23 18:40:00,
2013-09-23 13:45:00,82.7,71.5,29.77,NNW,340,3.3,5.8,69,0.00,CLR,,0.00,WeatherDisplay:10.37,2013-09-23 18:45:00,
2013-09-23 13:50:00,82.9,71.7,29.76,East,85,7.6,10.4,69,0.00,CLR,,0.00,WeatherDisplay:10.37,2013-09-23 18:50:00,
2013-09-23 13:55:00,82.9,71.7,29.76,North,360,5.5,8.1,69,0.00,CLR,,0.00,WeatherDisplay:10.37,2013-09-23 18:55:00,
2013-09-23 14:00:00,82.8,71.6,29.76,ENE,64,4.7,8.1,69,0.00,CLR,,0.00,WeatherDisplay:10.37,2013-09-23 19:00:00,
2013-09-23 14:05:00,83.0,72.2,29.76,ENE,59,5.7,9.2,70,0.00,CLR,,0.00,WeatherDisplay:10.37,2013-09-23 19:05:00,
2013-09-23 14:10:00,83.4,72.6,29.76,ENE,69,7.1,10.4,70,0.00,CLR,,0.00,WeatherDisplay:10.37,2013-09-23 19:10:00,
2013-09-23 14:15:00,83.7,72.4,29.75,NE,47,8.8,10.4,69,0.00,CLR,,0.00,WeatherDisplay:10.37,2013-09-23 19:15:00,
2013-09-23 14:20:00,84.1,72.4,29.75,NNE,23,7.9,10.4,68,0.00,CLR,,0.00,WeatherDisplay:10.37,2013-09-23 19:20:00,
2013-09-23 14:25:00,84.5,72.3,29.75,NE,35,8.2,12.4,67,0.00,CLR,,0.00,WeatherDisplay:10.37,2013-09-23 19:25:00,
2013-09-23 14:30:00,84.5,71.9,29.75,East,88,8.7,11.5,66,0.00,CLR,,0.00,WeatherDisplay:10.37,2013-09-23 19:30:00,
2013-09-23 14:35:00,84.6,72.4,29.75,ENE,59,9.0,10.4,67,0.00,CLR,,0.00,WeatherDisplay:10.37,2013-09-23 19:35:00,
2013-09-23 14:40:00,84.6,72.4,29.75,ENE,65,8.8,12.7,67,0.00,CLR,,0.00,WeatherDisplay:10.37,2013-09-23 19:40:00,
2013-09-23 14:45:00,84.7,72.1,29.75,NE,45,8.1,10.4,66,0.00,CLR,,0.00,WeatherDisplay:10.37,2013-09-23 19:45:00,
2013-09-23 14:50:00,85.1,71.1,29.75,NE,44,6.9,11.5,63,0.00,CLR,,0.00,WeatherDisplay:10.37,2013-09-23 19:50:00,
2013-09-23 14:55:00,85.3,70.8,29.75,NNE,28,3.5,9.2,62,0.00,CLR,,0.00,WeatherDisplay:10.37,2013-09-23 19:55:00,
2013-09-23 15:00:00,84.9,70.4,29.75,ENE,69,3.7,6.2,62,0.00,CLR,,0.00,WeatherDisplay:10.37,2013-09-23 20:00:00,
2013-09-23 15:05:00,84.5,71.0,29.75,ENE,58,8.5,13.8,64,0.00,CLR,,0.00,WeatherDisplay:10.37,2013-09-23 20:05:00,
2013-09-23 15:10:00,84.4,71.3,29.75,NNE,20,8.6,11.5,65,0.00,CLR,,0.00,WeatherDisplay:10.37,2013-09-23 20:10:00,
2013-09-23 15:15:00,84.1,71.5,29.75,ENE,71,7.5,11.5,66,0.00,CLR,,0.00,WeatherDisplay:10.37,2013-09-23 20:15:00,
2013-09-23 15:20:00,83.9,71.3,29.75,East,90,9.1,11.5,66,0.00,CLR,,0.00,WeatherDisplay:10.37,2013-09-23 20:20:00,
2013-09-23 15:25:00,83.9,71.8,29.75,East,79,7.9,9.2,67,0.00,CLR,,0.00,WeatherDisplay:10.37,2013-09-23 20:25:00,
2013-09-23 15:30:00,83.8,71.7,29.75,ENE,64,7.8,10.4,67,0.00,CLR,,0.00,WeatherDisplay:10.37,2013-09-23 20:30:00,
2013-09-23 15:35:00,84.0,72.3,29.75,East,97,6.2,8.1,68,0.00,CLR,,0.00,WeatherDisplay:10.37,2013-09-23 20:35:00,
2013-09-23 15:40:00,83.9,71.8,29.75,ENE,59,7.8,10.4,67,0.00,CLR,,0.00,WeatherDisplay:10.37,2013-09-23 20:40:00,
2013-09-23 15:45:00,83.9,72.2,29.75,East,92,8.4,10.4,68,0.00,CLR,,0.00,WeatherDisplay:10.37,2013-09-23 20:45:00,
2013-09-23 15:50:00,84.0,72.3,29.75,ENE,65,6.6,10.4,68,0.00,CLR,,0.00,WeatherDisplay:10.37,2013-09-23 20:50:00,
2013-09-23 15:55:00,83.9,72.2,29.74,ENE,64,6.3,9.2,68,0.00,CLR,,0.00,WeatherDisplay:10.37,2013-09-23 20:55:00,
2013-09-23 16:00:00,84.0,72.7,29.74,ENE,66,6.7,9.1,69,0.00,CLR,,0.00,WeatherDisplay:10.37,2013-09-23 21:00:00,
2013-09-23 16:05:00,84.0,71.4,29.74,North,6,4.8,6.9,66,0.00,CLR,,0.00,WeatherDisplay:10.37,2013-09-23 21:05:00,
2013-09-23 16:10:00,84.2,72.0,29.74,ENE,64,7.5,10.4,67,0.00,CLR,,0.00,WeatherDisplay:10.37,2013-09-23 21:10:00,
2013-09-23 16:15:00,84.2,72.5,29.74,East,92,7.7,10.4,68,0.00,CLR,,0.00,WeatherDisplay:10.37,2013-09-23 21:15:00,
2013-09-23 16:22:00,84.0,72.3,29.74,ESE,107,0.0,11.5,68,0.00,CLR,,0.00,WeatherDisplay:10.37,2013-09-23 21:22:00,
2013-09-23 16:27:00,83.8,72.1,29.74,East,82,9.9,11.8,68,0.00,CLR,,0.00,WeatherDisplay:10.37,2013-09-23 21:27:00,
2013-09-23 16:32:00,83.9,72.2,29.74,NE,38,9.4,12.7,68,0.00,CLR,,0.00,WeatherDisplay:10.37,2013-09-23 21:32:00,
2013-09-23 16:37:00,83.9,72.2,29.74,East,92,8.1,12.7,68,0.00,CLR,,0.00,WeatherDisplay:10.37,2013-09-23 21:37:00,
2013-09-23 16:42:00,84.0,72.3,29.74,ESE,106,10.5,12.7,68,0.00,CLR,,0.00,WeatherDisplay:10.37,2013-09-23 21:42:00,
2013-09-23 16:47:00,84.1,72.4,29.74,East,83,9.6,11.5,68,0.00,CLR,,0.00,WeatherDisplay:10.37,2013-09-23 21:47:00,
2013-09-23 16:52:00,84.1,72.4,29.74,NE,35,10.3,12.2,68,0.00,CLR,,0.00,WeatherDisplay:10.37,2013-09-23 21:52:00,
2013-09-23 16:57:00,84.0,72.7,29.74,East,88,7.5,10.5,69,0.00,CLR,,0.00,WeatherDisplay:10.37,2013-09-23 21:57:00,
2013-09-23 17:02:00,83.9,72.6,29.73,East,86,8.1,11.5,69,0.00,CLR,,0.00,WeatherDisplay:10.37,2013-09-23 22:02:00,
2013-09-23 17:07:00,83.8,72.5,29.73,SE,131,8.1,11.5,69,0.00,CLR,,0.00,WeatherDisplay:10.37,2013-09-23 22:07:00,
2013-09-23 17:12:00,84.0,72.7,29.73,ESE,114,7.6,10.1,69,0.00,CLR,,0.00,WeatherDisplay:10.37,2013-09-23 22:12:00,
2013-09-23 17:17:00,84.1,72.8,29.73,East,92,8.8,10.4,69,0.00,CLR,,0.00,WeatherDisplay:10.37,2013-09-23 22:17:00,
2013-09-23 17:22:00,84.0,72.7,29.73,East,88,7.0,7.7,69,0.00,CLR,,0.00,WeatherDisplay:10.37,2013-09-23 22:22:00,
2013-09-23 17:27:00,84.0,72.3,29.73,ENE,69,7.0,9.2,68,0.00,CLR,,0.00,WeatherDisplay:10.37,2013-09-23 22:27:00,
2013-09-23 17:32:00,83.9,72.2,29.73,East,92,7.0,10.4,68,0.00,CLR,,0.00,WeatherDisplay:10.37,2013-09-23 22:32:00,
2013-09-23 17:37:00,83.6,71.9,29.73,NE,55,7.4,10.4,68,0.00,CLR,,0.00,WeatherDisplay:10.37,2013-09-23 22:37:00,
2013-09-23 17:42:00,83.5,71.8,29.73,NE,42,7.8,9.2,68,0.00,CLR,,0.00,WeatherDisplay:10.37,2013-09-23 22:42:00,
2013-09-23 17:47:00,83.5,72.3,29.73,ENE,64,6.7,9.1,69,0.00,CLR,,0.00,WeatherDisplay:10.37,2013-09-23 22:47:00,
2013-09-23 17:52:00,83.4,72.6,29.73,East,83,6.1,8.1,70,0.00,CLR,,0.00,WeatherDisplay:10.37,2013-09-23 22:52:00,
2013-09-23 17:57:00,83.5,72.7,29.73,East,100,6.0,9.2,70,0.00,CLR,,0.00,WeatherDisplay:10.37,2013-09-23 22:57:00,
2013-09-23 18:02:00,83.5,72.7,29.73,East,95,4.6,8.1,70,0.00,CLR,,0.00,WeatherDisplay:10.37,2013-09-23 23:02:00,
2013-09-23 18:07:00,83.3,72.5,29.73,NE,38,6.1,8.1,70,0.00,CLR,,0.00,WeatherDisplay:10.37,2013-09-23 23:07:00,
2013-09-23 18:12:00,83.3,72.9,29.73,East,85,5.2,6.9,71,0.00,CLR,,0.00,WeatherDisplay:10.37,2013-09-23 23:12:00,
2013-09-23 18:17:00,83.3,73.3,29.73,NE,44,4.4,6.2,72,0.00,CLR,,0.00,WeatherDisplay:10.37,2013-09-23 23:17:00,
2013-09-23 18:22:00,83.1,73.1,29.73,NE,56,4.1,5.8,72,0.00,CLR,,0.00,WeatherDisplay:10.37,2013-09-23 23:22:00,
2013-09-23 18:27:00,83.0,73.0,29.73,East,89,3.3,4.6,72,0.00,CLR,,0.00,WeatherDisplay:10.37,2013-09-23 23:27:00,
2013-09-23 18:32:00,82.9,73.4,29.73,NE,56,4.5,5.8,73,0.00,CLR,,0.00,WeatherDisplay:10.37,2013-09-23 23:32:00,
2013-09-23 18:37:00,82.9,73.4,29.73,ENE,61,5.6,6.0,73,0.00,CLR,,0.00,WeatherDisplay:10.37,2013-09-23 23:37:00,
2013-09-23 18:42:00,82.7,73.2,29.73,NE,54,3.8,5.5,73,0.00,CLR,,0.00,WeatherDisplay:10.37,2013-09-23 23:42:00,
2013-09-23 18:47:00,82.6,73.1,29.73,NE,49,3.8,4.6,73,0.00,CLR,,0.00,WeatherDisplay:10.37,2013-09-23 23:47:00,
2013-09-23 18:52:00,82.6,73.5,29.73,NNE,30,1.8,4.6,74,0.00,CLR,,0.00,WeatherDisplay:10.37,2013-09-23 23:52:00,
2013-09-23 18:57:00,82.5,73.4,29.73,North,352,2.9,5.8,74,0.00,CLR,,0.00,WeatherDisplay:10.37,2013-09-23 23:57:00,
2013-09-23 19:02:00,82.6,73.5,29.73,North,3,1.6,4.6,74,0.00,CLR,,0.00,WeatherDisplay:10.37,2013-09-24 00:02:00,
2013-09-23 19:07:00,82.4,73.3,29.73,NE,35,2.4,3.2,74,0.00,CLR,,0.00,WeatherDisplay:10.37,2013-09-24 00:07:00,
2013-09-23 19:12:00,82.4,73.3,29.73,North,3,2.2,3.2,74,0.00,CLR,,0.00,WeatherDisplay:10.37,2013-09-24 00:12:00,
2013-09-23 19:17:00,82.4,73.3,29.74,NNE,30,2.6,3.5,74,0.00,CLR,,0.00,WeatherDisplay:10.37,2013-09-24 00:17:00,
2013-09-23 19:22:00,82.4,73.7,29.74,NNE,16,3.0,3.5,75,0.00,CLR,,0.00,WeatherDisplay:10.37,2013-09-24 00:22:00,
2013-09-23 19:28:00,82.1,73.4,29.74,NNE,30,3.4,4.6,75,0.00,CLR,,0.00,WeatherDisplay:10.37,2013-09-24 00:28:00,
2013-09-23 19:33:00,82.0,73.7,29.74,North,352,3.0,3.5,76,0.00,CLR,,0.00,WeatherDisplay:10.37,2013-09-24 00:33:00,
2013-09-23 19:38:00,81.7,73.4,29.74,NNE,13,3.8,4.6,76,0.00,CLR,,0.00,WeatherDisplay:10.37,2013-09-24 00:38:00,
2013-09-23 19:43:00,81.5,72.8,29.74,NNE,24,2.4,3.5,75,0.00,CLR,,0.00,WeatherDisplay:10.37,2013-09-24 00:43:00,
2013-09-23 19:48:00,81.4,72.7,29.74,North,353,2.5,3.5,75,0.00,CLR,,0.00,WeatherDisplay:10.37,2013-09-24 00:48:00,
2013-09-23 19:53:00,81.4,72.7,29.74,North,10,2.7,3.5,75,0.00,CLR,,0.00,WeatherDisplay:10.37,2013-09-24 00:53:00,
2013-09-23 19:58:00,81.4,72.7,29.75,NNE,23,2.7,3.5,75,0.00,CLR,,0.00,WeatherDisplay:10.37,2013-09-24 00:58:00,
2013-09-23 20:03:00,81.3,73.0,29.75,North,8,2.5,3.7,76,0.00,CLR,,0.00,WeatherDisplay:10.37,2013-09-24 01:03:00,
2013-09-23 20:08:00,81.3,73.0,29.75,NNE,20,2.7,3.5,76,0.00,CLR,,0.00,WeatherDisplay:10.37,2013-09-24 01:08:00,
2013-09-23 20:13:00,81.1,72.8,29.75,North,6,2.4,3.5,76,0.00,CLR,,0.00,WeatherDisplay:10.37,2013-09-24 01:13:00,
2013-09-23 20:18:00,81.0,72.7,29.75,NNE,23,3.9,5.8,76,0.00,CLR,,0.00,WeatherDisplay:10.37,2013-09-24 01:18:00,
2013-09-23 20:23:00,80.9,73.0,29.75,NNW,330,3.2,4.6,77,0.00,CLR,,0.00,WeatherDisplay:10.37,2013-09-24 01:23:00,
2013-09-23 20:28:00,80.6,73.1,29.75,NNW,344,2.6,4.6,78,0.00,CLR,,0.00,WeatherDisplay:10.37,2013-09-24 01:28:00,
2013-09-23 20:33:00,80.3,72.8,29.75,North,6,4.1,5.8,78,0.00,CLR,,0.00,WeatherDisplay:10.37,2013-09-24 01:33:00,
2013-09-23 20:38:00,80.4,73.3,29.76,North,360,4.9,6.7,79,0.00,CLR,,0.00,WeatherDisplay:10.37,2013-09-24 01:38:00,
2013-09-23 20:43:00,80.4,73.3,29.76,NNE,13,5.0,6.9,79,0.00,CLR,,0.00,WeatherDisplay:10.37,2013-09-24 01:43:00,
2013-09-23 20:48:00,80.4,73.3,29.76,North,0,4.1,6.9,79,0.00,CLR,,0.00,WeatherDisplay:10.37,2013-09-24 01:48:00,
2013-09-23 20:53:00,80.4,73.3,29.76,NNE,21,4.2,5.8,79,0.00,CLR,,0.00,WeatherDisplay:10.37,2013-09-24 01:53:00,
2013-09-23 20:58:00,80.3,73.2,29.76,North,356,3.7,5.8,79,0.00,CLR,,0.00,WeatherDisplay:10.37,2013-09-24 01:58:00,
2013-09-23 21:03:00,80.3,73.2,29.76,North,7,2.9,4.7,79,0.00,CLR,,0.00,WeatherDisplay:10.37,2013-09-24 02:03:00,
2013-09-23 21:08:00,80.2,73.1,29.76,NNW,344,3.0,4.6,79,0.00,CLR,,0.00,WeatherDisplay:10.37,2013-09-24 02:08:00,
2013-09-23 21:13:00,80.2,73.1,29.76,North,6,3.0,3.7,79,0.00,CLR,,0.00,WeatherDisplay:10.37,2013-09-24 02:13:00,
2013-09-23 21:18:00,80.1,73.4,29.76,North,360,3.7,5.3,80,0.00,CLR,,0.00,WeatherDisplay:10.37,2013-09-24 02:18:00,
2013-09-23 21:23:00,80.0,73.3,29.77,North,8,2.3,4.1,80,0.00,CLR,,0.00,WeatherDisplay:10.37,2013-09-24 02:23:00,
2013-09-23 21:28:00,80.0,73.3,29.77,North,357,3.4,4.8,80,0.00,CLR,,0.00,WeatherDisplay:10.37,2013-09-24 02:28:00,
2013-09-23 21:33:00,80.0,73.3,29.77,North,356,3.3,4.6,80,0.00,CLR,,0.00,WeatherDisplay:10.37,2013-09-24 02:33:00,
2013-09-23 21:38:00,79.9,73.2,29.77,North,8,4.0,4.8,80,0.00,CLR,,0.00,WeatherDisplay:10.37,2013-09-24 02:38:00,
2013-09-23 21:43:00,79.9,73.5,29.77,North,0,5.0,5.8,81,0.00,CLR,,0.00,WeatherDisplay:10.37,2013-09-24 02:43:00,
2013-09-23 21:48:00,79.8,73.4,29.77,NE,41,3.4,4.6,81,0.00,CLR,,0.00,WeatherDisplay:10.37,2013-09-24 02:48:00,
2013-09-23 21:53:00,79.8,73.4,29.78,NE,48,3.2,4.6,81,0.00,CLR,,0.00,WeatherDisplay:10.37,2013-09-24 02:53:00,
2013-09-23 21:58:00,79.8,73.4,29.78,NNE,13,4.5,5.8,81,0.00,CLR,,0.00,WeatherDisplay:10.37,2013-09-24 02:58:00,
2013-09-23 22:03:00,79.8,73.8,29.78,North,357,4.7,5.8,82,0.00,CLR,,0.00,WeatherDisplay:10.37,2013-09-24 03:03:00,
2013-09-23 22:08:00,79.7,73.7,29.78,North,357,4.2,5.8,82,0.00,CLR,,0.00,WeatherDisplay:10.37,2013-09-24 03:08:00,
2013-09-23 22:13:00,79.7,73.7,29.78,NNW,346,5.2,6.9,82,0.00,CLR,,0.00,WeatherDisplay:10.37,2013-09-24 03:13:00,
2013-09-23 22:18:00,79.7,73.7,29.79,North,4,4.3,6.9,82,0.00,CLR,,0.00,WeatherDisplay:10.37,2013-09-24 03:18:00,
2013-09-23 22:23:00,79.7,73.3,29.79,North,353,3.8,4.6,81,0.00,CLR,,0.00,WeatherDisplay:10.37,2013-09-24 03:23:00,
2013-09-23 22:28:00,79.5,73.2,29.79,North,0,2.9,4.2,81,0.00,CLR,,0.00,WeatherDisplay:10.37,2013-09-24 03:28:00,
2013-09-23 22:33:00,79.4,73.1,29.79,NNW,337,3.8,5.1,81,0.00,CLR,,0.00,WeatherDisplay:10.37,2013-09-24 03:33:00,
2013-09-23 22:38:00,79.4,73.4,29.79,NNW,336,3.4,4.6,82,0.00,CLR,,0.00,WeatherDisplay:10.37,2013-09-24 03:38:00,
2013-09-23 22:43:00,79.3,73.3,29.79,North,354,3.9,5.8,82,0.00,CLR,,0.00,WeatherDisplay:10.37,2013-09-24 03:43:00,
2013-09-23 22:48:00,79.3,73.3,29.79,North,349,3.9,4.7,82,0.00,CLR,,0.00,WeatherDisplay:10.37,2013-09-24 03:48:00,
2013-09-23 22:53:00,79.2,73.6,29.79,NNW,347,4.0,5.8,83,0.00,CLR,,0.00,WeatherDisplay:10.37,2013-09-24 03:53:00,
2013-09-23 22:58:00,79.1,73.5,29.80,North,360,4.6,5.8,83,0.00,CLR,,0.00,WeatherDisplay:10.37,2013-09-24 03:58:00,
2013-09-23 23:01:00,79.1,73.8,29.80,NNW,336,4.1,5.8,84,0.00,CLR,,0.00,WeatherDisplay:10.37,2013-09-24 04:01:00,
2013-09-23 23:02:00,79.1,73.8,29.80,NNW,344,3.3,5.8,84,0.00,CLR,,0.00,WeatherDisplay:10.37,2013-09-24 04:02:00,
2013-09-23 23:07:00,79.2,73.9,29.80,NNW,337,3.6,4.6,84,0.00,CLR,,0.00,WeatherDisplay:10.37,2013-09-24 04:07:00,
2013-09-23 23:12:00,79.1,73.8,29.80,NNW,336,3.0,4.6,84,0.00,CLR,,0.00,WeatherDisplay:10.37,2013-09-24 04:12:00,
2013-09-23 23:17:00,79.1,74.2,29.80,NNW,340,4.3,4.6,85,0.00,CLR,,0.00,WeatherDisplay:10.37,2013-09-24 04:17:00,
2013-09-23 23:22:00,79.2,74.3,29.80,NNW,336,2.8,3.5,85,0.00,CLR,,0.00,WeatherDisplay:10.37,2013-09-24 04:22:00,
2013-09-23 23:27:00,79.1,74.2,29.80,NNW,339,3.1,3.5,85,0.00,CLR,,0.00,WeatherDisplay:10.37,2013-09-24 04:27:00,
2013-09-23 23:32:00,79.1,74.2,29.80,NNW,333,1.8,3.5,85,0.00,CLR,,0.00,WeatherDisplay:10.37,2013-09-24 04:32:00,
2013-09-23 23:37:00,79.0,74.1,29.80,NNW,336,2.7,3.5,85,0.00,CLR,,0.00,WeatherDisplay:10.37,2013-09-24 04:37:00,
2013-09-23 23:42:00,78.9,74.4,29.80,NNW,329,2.5,3.5,86,0.00,CLR,,0.00,WeatherDisplay:10.37,2013-09-24 04:42:00,
2013-09-23 23:47:00,78.8,74.3,29.80,NNW,340,3.1,3.9,86,0.00,CLR,,0.00,WeatherDisplay:10.37,2013-09-24 04:47:00,
2013-09-23 23:52:00,78.7,74.5,29.80,NNW,329,1.8,2.3,87,0.00,CLR,,0.00,WeatherDisplay:10.37,2013-09-24 04:52:00,
2013-09-23 23:57:00,78.5,74.6,29.80,NNW,335,2.7,3.6,88,0.00,CLR,,0.00,WeatherDisplay:10.37,2013-09-24 04:57:00,